GW2509 Weather Reports


time (UTC)temp
F
wind
direction
speed
knots
gust
knots
rain 1hr
in
rain 24hr
in
rain mn
in
humidity
%
barometer
mb
20260504000029 60 158 3.5 8.7 0.00 0.00 0.00 53 1009.7
20260503235527 60 191 3.5 7.0 0.00 0.00 0.00 53 1009.9
20260503235023 60 188 1.7 7.8 0.00 0.00 0.00 53 1009.5
20260503234521 60 201 3.5 7.8 0.00 0.00 0.00 53 1009.9
20260503234019 60 217 7.8 9.6 0.00 0.00 0.00 53 1009.5
20260503233515 60 193 3.5 7.0 0.00 0.00 0.00 54 1009.5
20260503233011 60 178 5.2 7.8 0.00 0.00 0.00 54 1009.7
20260503232508 60 211 7.0 7.8 0.00 0.00 0.00 53 1009.7
20260503232006 60 208 7.0 12.2 0.00 0.00 0.00 55 1009.8
20260503231504 60 176 6.1 15.6 0.00 0.00 0.00 55 1009.8
20260503231000 60 184 7.0 9.6 0.00 0.00 0.00 55 1009.6
20260503230456 60 183 9.6 13.9 0.00 0.00 0.00 54 1009.5
20260503225954 60 206 4.3 12.2 0.00 0.00 0.00 55 1009.5
20260503225451 60 184 2.6 7.8 0.00 0.00 0.00 54 1009.5
20260503224946 60 204 8.7 12.2 0.00 0.00 0.00 52 1009.9
20260503224443 60 216 3.5 13.9 0.00 0.00 0.00 52 1009.8
20260503223941 60 189 6.1 8.7 0.00 0.00 0.00 52 1010.4
20260503223439 60 224 7.8 8.7 0.00 0.00 0.00 52 1010.2
20260503222934 60 223 5.2 12.2 0.00 0.00 0.00 50 1010.1
20260503222433 60 208 6.1 9.6 0.00 0.00 0.00 49 1010.0
20260503221931 60 222 6.1 12.2 0.00 0.00 0.00 48 1010.1
20260503221429 60 164 7.8 13.0 0.00 0.00 0.00 49 1010.5
20260503220925 60 206 5.2 11.3 0.00 0.00 0.00 49 1010.2
20260503220421 60 226 7.8 11.3 0.00 0.00 0.00 49 1010.4
20260503215919 60 163 5.2 7.8 0.00 0.00 0.00 49 1010.0
20260503215416 60 215 12.2 16.5 0.00 0.00 0.00 47 1009.8
20260503214913 60 183 4.3 13.9 0.00 0.00 0.00 50 1009.9
20260503214411 60 212 8.7 16.5 0.00 0.00 0.00 49 1010.5
20260503213908 60 194 9.6 14.8 0.00 0.00 0.00 50 1010.5
20260503213406 60 138 3.5 13.0 0.00 0.00 0.00 50 1010.4
20260503212902 60 142 7.8 11.3 0.00 0.00 0.00 50 1010.4
20260503212400 60 186 7.8 11.3 0.00 0.00 0.00 50 1010.5
20260503211857 60 196 8.7 13.0 0.00 0.00 0.00 49 1011.0
20260503211354 60 210 7.8 9.6 0.00 0.00 0.00 49 1011.1
20260503210848 60 208 10.4 14.8 0.00 0.00 0.00 49 1011.3
20260503210346 60 163 5.2 11.3 0.00 0.00 0.00 49 1011.1
20260503205841 61 197 5.2 14.8 0.00 0.00 0.00 48 1011.3
20260503205338 60 209 9.6 14.8 0.00 0.00 0.00 46 1011.4
20260503204834 60 192 4.3 11.3 0.00 0.00 0.00 48 1011.6
20260503204332 61 170 8.7 13.9 0.00 0.00 0.00 45 1011.4
20260503203829 61 198 9.6 12.2 0.00 0.00 0.00 46 1011.7
20260503203326 61 184 7.8 15.6 0.00 0.00 0.00 44 1011.8
20260503202823 61 193 8.7 12.2 0.00 0.00 0.00 44 1011.6
20260503202321 62 203 8.7 15.6 0.00 0.00 0.00 43 1011.8
20260503201819 62 192 7.8 13.9 0.00 0.00 0.00 44 1012.3
20260503201316 62 248 9.6 19.1 0.00 0.00 0.00 43 1012.7
20260503200814 62 230 11.3 22.6 0.00 0.00 0.00 43 1012.5
20260503200309 62 213 10.4 15.6 0.00 0.00 0.00 44 1012.6
20260503195807 61 189 5.2 20.0 0.00 0.00 0.00 44 1012.8
20260503195304 62 228 7.8 13.9 0.00 0.00 0.00 42 1013.0
20260503194800 61 236 11.3 16.5 0.00 0.00 0.00 44 1013.7
20260503194256 61 194 7.8 18.2 0.00 0.00 0.00 45 1013.7
20260503193753 61 203 10.4 12.2 0.00 0.00 0.00 45 1013.8
20260503193249 61 231 8.7 13.0 0.00 0.00 0.00 44 1014.0
20260503192745 62 208 9.6 16.5 0.00 0.00 0.00 43 1014.0
20260503192240 62 192 7.0 15.6 0.00 0.00 0.00 44 1013.9
20260503191737 62 240 13.0 20.0 0.00 0.00 0.00 43 1013.9
20260503191234 61 206 5.2 16.5 0.00 0.00 0.00 45 1014.1
20260503190731 61 204 14.8 19.1 0.00 0.00 0.00 43 1014.0
20260503190227 61 178 7.8 13.0 0.00 0.00 0.00 45 1014.0
20260503185725 61 226 13.0 15.6 0.00 0.00 0.00 43 1014.1
20260503185220 61 237 15.6 20.9 0.00 0.00 0.00 42 1014.2
20260503184715 61 185 13.9 22.6 0.00 0.00 0.00 42 1014.2
20260503184212 61 244 11.3 20.9 0.00 0.00 0.00 43 1014.1
20260503183708 62 196 13.9 20.0 0.00 0.00 0.00 43 1014.0
20260503183205 62 226 10.4 12.2 0.00 0.00 0.00 44 1014.1
20260503182704 61 225 13.0 18.2 0.00 0.00 0.00 46 1014.3
20260503182202 62 216 20.0 22.6 0.00 0.00 0.00 43 1014.4
20260503181658 61 231 7.0 13.9 0.00 0.00 0.00 46 1014.6
20260503181155 60 208 13.0 18.2 0.00 0.00 0.00 46 1014.4
20260503180651 61 238 7.8 12.2 0.00 0.00 0.00 45 1014.5
20260503180150 61 224 11.3 19.1 0.00 0.00 0.00 45 1014.8
20260503175647 61 233 10.4 15.6 0.00 0.00 0.00 45 1014.9
20260503175144 61 191 9.6 20.9 0.00 0.00 0.00 45 1015.1
20260503174640 60 230 9.6 20.9 0.00 0.00 0.00 47 1015.3
20260503174137 60 220 13.0 19.1 0.00 0.00 0.00 46 1015.7
20260503173632 61 215 12.2 20.0 0.00 0.00 0.00 45 1015.4
20260503173129 60 185 11.3 19.1 0.00 0.00 0.00 46 1015.6
20260503172626 60 226 18.2 20.0 0.00 0.00 0.00 45 1016.0
20260503172124 60 216 13.0 16.5 0.00 0.00 0.00 47 1015.9
20260503171620 60 230 16.5 18.2 0.00 0.00 0.00 46 1016.1
20260503171117 60 192 11.3 16.5 0.00 0.00 0.00 45 1016.0
20260503170614 60 219 17.4 20.9 0.00 0.00 0.00 46 1016.1
20260503170111 60 225 9.6 13.0 0.00 0.00 0.00 47 1016.3
20260503151006 57 255 10.4 19.1 0.00 0.00 0.00 53 1017.7
20260503150502 57 199 8.7 12.2 0.00 0.00 0.00 52 1017.7
20260503131355 49 206 7.0 11.3 0.00 0.00 0.00 64 1018.0
20260503130853 49 215 7.0 8.7 0.00 0.00 0.00 65 1018.0
20260503130350 48 199 2.6 8.7 0.00 0.00 0.00 65 1018.0
20260503110744 39 185 1.7 2.6 0.00 0.00 0.00 76 1017.8
20260503110241 38 166 0.9 2.6 0.00 0.00 0.00 77 1017.7
20260503100207 38 157 0.9 0.9 0.00 0.00 0.00 77 1017.5
20260503090131 40 206 1.7 5.2 0.00 0.00 0.00 73 1017.8
20260503081602 39 179 0.9 0.9 0.00 0.00 0.00 74 1017.7
20260503081059 39 190 0.9 0.9 0.00 0.00 0.00 74 1017.5
20260503080554 39 190 0.9 0.9 0.00 0.00 0.00 74 1017.9
20260503072529 38 177 0.0 0.9 0.00 0.00 0.00 76 1017.8
20260503072026 39 176 0.0 0.0 0.00 0.00 0.00 76 1017.9
20260503071522 39 176 0.9 0.9 0.00 0.00 0.00 76 1017.9
20260503071019 39 174 0.9 0.9 0.00 0.00 0.00 75 1017.8
20260503070516 39 153 0.0 0.9 0.00 0.00 0.00 75 1017.9
20260503054939 39 149 0.0 1.7 0.00 0.00 0.00 75 1018.0
20260503054436 39 142 0.0 0.0 0.00 0.00 0.00 75 1018.2
20260503053933 39 142 0.0 0.0 0.00 0.00 0.00 76 1018.4
20260503053431 39 142 0.0 0.0 0.00 0.00 0.00 78 1018.1
20260503052927 39 142 0.0 0.0 0.00 0.00 0.00 80 1018.2
20260503052425 39 142 0.0 0.0 0.00 0.00 0.00 84 1018.2
20260503051921 39 142 0.0 0.9 0.00 0.00 0.00 86 1018.1
20260503051417 39 142 0.9 0.9 0.00 0.00 0.00 87 1018.3
20260503050914 39 142 1.7 1.7 0.00 0.00 0.00 86 1018.1
20260503050410 39 142 0.9 1.7 0.00 0.00 0.00 86 1018.4
20260503045908 40 142 1.7 1.7 0.00 0.00 0.00 84 1018.3
20260503045405 40 142 0.9 0.9 0.00 0.00 0.00 81 1018.4
20260503044902 40 142 0.9 0.9 0.00 0.00 0.00 82 1018.3
20260503044359 40 142 0.9 0.9 0.00 0.00 0.00 82 1018.4
20260503043856 40 142 0.9 0.9 0.00 0.00 0.00 81 1018.3
20260503043353 40 142 0.9 0.9 0.00 0.00 0.00 81 1018.3
20260503042849 40 142 0.0 0.9 0.00 0.00 0.00 80 1018.2
20260503042346 40 142 0.9 0.9 0.00 0.00 0.00 78 1018.1
20260503041842 40 142 0.9 1.7 0.00 0.00 0.00 78 1018.3
20260503041339 40 143 0.0 0.0 0.00 0.00 0.00 77 1018.3
20260503040837 40 142 0.9 0.9 0.00 0.00 0.00 75 1018.2
20260503040334 40 139 0.9 0.9 0.00 0.00 0.00 77 1018.2
20260503035831 40 139 0.9 0.9 0.00 0.00 0.00 78 1018.4
20260503035328 40 139 0.9 0.9 0.00 0.00 0.00 80 1018.4
20260503034825 40 139 0.0 0.0 0.00 0.00 0.00 81 1018.3
20260503034323 41 139 0.0 0.0 0.00 0.00 0.00 79 1018.3
20260503033820 41 139 0.0 0.9 0.00 0.00 0.00 79 1018.4
20260503033317 41 139 0.9 0.9 0.00 0.00 0.00 78 1018.3
20260503032815 42 132 0.9 0.9 0.00 0.00 0.00 76 1018.2
20260503032314 42 132 0.9 0.9 0.00 0.00 0.00 75 1018.4
20260503031811 42 131 1.7 0.9 0.00 0.00 0.00 73 1018.2
20260503031309 42 150 0.9 0.9 0.00 0.00 0.00 72 1018.4
20260503030804 42 151 0.9 0.9 0.00 0.00 0.00 71 1018.2
20260503030301 42 203 0.9 0.9 0.00 0.00 0.00 71 1018.3
20260503025758 42 203 0.9 0.9 0.00 0.00 0.00 70 1018.2
20260503025255 42 205 0.9 0.9 0.00 0.00 0.00 69 1018.3
20260503024752 42 205 0.9 1.7 0.00 0.00 0.00 70 1018.3
20260503024249 42 204 0.9 0.9 0.00 0.00 0.00 70 1018.2
20260503023746 43 204 0.9 0.9 0.00 0.00 0.00 69 1018.2
20260503023243 43 204 0.9 0.9 0.00 0.00 0.00 66 1018.3
20260503022739 42 204 0.9 0.9 0.00 0.00 0.00 67 1018.2
20260503022239 42 204 0.9 0.0 0.00 0.00 0.00 70 1018.2
20260503021737 43 204 0.0 0.0 0.00 0.00 0.00 69 1018.3
20260503021232 43 204 0.9 0.9 0.00 0.00 0.00 67 1018.1
20260503020731 43 234 0.0 0.9 0.00 0.00 0.00 66 1018.3
20260503020228 44 234 0.0 0.0 0.00 0.00 0.00 62 1018.1
20260503015724 44 234 0.9 0.9 0.00 0.00 0.00 59 1018.2
20260503015221 44 234 0.9 0.9 0.00 0.00 0.00 62 1018.0
20260503014717 45 234 0.9 0.9 0.00 0.00 0.00 62 1017.9
20260503014215 45 234 0.0 0.9 0.00 0.00 0.00 57 1017.8
20260503013712 45 234 0.0 0.0 0.00 0.00 0.00 62 1018.0
20260503013210 46 234 0.0 0.9 0.00 0.00 0.00 60 1017.7
20260503012707 46 234 0.0 0.0 0.00 0.00 0.00 54 1017.9
20260503012204 46 234 0.0 0.0 0.00 0.00 0.00 52 1017.8
20260503011700 46 234 0.9 0.9 0.00 0.00 0.00 53 1017.6
20260503011157 46 234 0.9 0.9 0.00 0.00 0.00 53 1017.6
20260503010653 47 321 0.9 0.9 0.00 0.00 0.00 56 1017.7
20260503010151 47 5 0.0 0.0 0.00 0.00 0.00 47 1017.5
20260503005648 47 5 0.0 0.9 0.00 0.00 0.00 50 1017.7
20260503005145 49 4 0.0 0.0 0.00 0.00 0.00 53 1017.6
20260503004641 49 4 0.0 0.0 0.00 0.00 0.00 45 1017.7
20260503004140 50 4 0.0 0.0 0.00 0.00 0.00 43 1017.7
20260503003636 50 4 0.0 0.9 0.00 0.00 0.00 44 1017.5
20260503003133 51 4 0.0 0.0 0.00 0.00 0.00 44 1017.6
20260503002630 51 5 0.0 0.9 0.00 0.00 0.00 43 1017.6
20260503002127 52 355 1.7 1.7 0.00 0.00 0.00 40 1017.6
20260503001623 52 348 1.7 1.7 0.00 0.00 0.00 40 1017.5
20260503001120 52 4 0.9 1.7 0.00 0.00 0.00 39 1017.6
20260503000618 53 355 0.9 1.7 0.00 0.00 0.00 38 1017.5